Regional Weather Roundup
Issued by NWS

Home | Current Version | Previous Version | Text Only | Print | Product List | Glossary On
Versions: 1 2 3 4 5 6 7 8 9 10 11 12 13 14 15 16 17 18 19 20 21 22 23 24 25 26 27 28 29 30 31 32 33 34 35 36 37 38 39 40 41 42 43 44 45 46 47 48 49 50
000
ASUS45 KBOI 281010
RWRID

IDAHO REGIONAL WEATHER ROUNDUP
NATIONAL WEATHER SERVICE BOISE ID
400 AM MDT WED JUN 28 2017

NOTE: "FAIR" INDICATES FEW OR NO CLOUDS BELOW 12000 FEET
WITH NO SIGNIFICANT WEATHER AND/OR OBSTRUCTIONS TO VISIBILITY

IDZ012-014-281100-
SOUTHWEST IDAHO


CITY           SKY/WX    TMP DP  RH WIND       PRES   REMARKS
BOISE          PTCLDY    63  49  60 CALM      29.81R
CALDWELL       LGT RAIN  65  49  56 W13       29.82R
MOUNTAIN HOME  CLEAR     62  49  62 NW6       29.81R
$$

IDZ016-017-281100-
SOUTHCENTRAL IDAHO


CITY           SKY/WX    TMP DP  RH WIND       PRES   REMARKS
BURLEY         PTCLDY    59  49  69 SE7       29.89F
JEROME         LGT RAIN  59  51  75 E10       29.86S
TWIN FALLS     PTCLDY    61  47  59 E14       29.88F
$$

IDZ019>023-281100-
SOUTHEAST IDAHO


CITY           SKY/WX    TMP DP  RH WIND       PRES   REMARKS
IDAHO FALLS    CLOUDY    53  50  89 NW6       29.94R
POCATELLO      MOCLDY    57  52  83 NW12G20   29.99R
REXBURG        CLOUDY    51  48  89 NE3       29.92S
$$

IDZ006-010-011-018-031-032-281100-
CENTRAL IDAHO MOUNTAINS


CITY           SKY/WX    TMP DP  RH WIND       PRES   REMARKS
MCCALL         CLOUDY    55  47  74 N5        29.89F
HAILEY         PTCLDY    52  37  58 NW7       29.96S
STANLEY          N/A     49  44  83 CALM      30.03F
SALMON         CLOUDY    55  46  71 CALM      29.89S
CHALLIS        MOCLDY    54  47  77 VRB3      29.96R
$$

IDZ002-004-006-007-026-281100-
NORTHERN IDAHO


CITY           SKY/WX    TMP DP  RH WIND       PRES   REMARKS
LEWISTON       CLEAR     61  45  55 CALM      29.79S
LOWELL           N/A     56  50  80 CALM      29.83S
COEUR D`ALENE  PTCLDY    59  47  64 S9        29.80F
MULLAN PASS    MOCLDY    50  34  54 VRB3      29.93F
$$



USA.gov is the U.S. government's official web portal to all federal, state and local government web resources and services.